Weather in Sosnovo

Russia / Saint-Petersburg and Leningrad Oblast     59°12′25″N   29°37′52″E
temp.,
°C
wind,
m/s
gust,
m/s
humid.,
%
clouds,
%
prec.,
mm/h
press.,
hPa
HPBL,
m
27 october, wed
wed2700:00+4ssw41092100 0.3 1009396
03:00+5sw41297100 2.6 1007527
06:00+6wsw41097100 1.0 1006540
09:00+7w51182100 1.1 10061043
12:00+7wsw5118391 0.1 10071135
15:00+7wsw51081100 0.1 1008907
18:00+6sw41186100 0.0 1008589
21:00+6ssw4993100 0.4 1005524
28 october, thu
thu2800:00+6sse51395100 5.0 1002824
03:00+9w51195100 5.6 1001985
06:00+8wnw61194100 0.1 1004813
09:00+6nnw41092100 0.1 1010636
12:00+7nnw368798 0.1 1015564
15:00+8nw127987 0.1 1018590
18:00+6sw1188100 0.1 102010
21:00+7s2586100 0.1 1021134
29 october, fri
fri2900:00+6s31088100 0.0 1022414
03:00+7s51386100 0.0 1020551
06:00+7ssw51389100 0.0 1019677
09:00+9sw5129398 0.0 1019654
12:00+11sw514835 0.0 1019575
15:00+12sw51479100 0.0 1019714
18:00+10sw51486100 0.0 1019548
21:00+10sw41391100 0.0 1020451
30 october, sat
sat3000:00+9ssw4139368 0.0 1020437
03:00+9sw4149497 0.0 1019495
06:00+8ssw41296100 0.0 1019477
09:00+8ssw41296100 0.0 1019408
12:00+10ssw41283100 0.0 1019469
15:00+11ssw41277100 0.0 1018580
18:00+9s5138255 0.0 1017519
21:00+8ssw514847 0.0 1017584
31 october, sun
sun3100:00+8ssw514885 0.0 1016586
03:00+7ssw4129314 0.0 1016502
06:00+7ssw412936 0.0 1016452
09:00+6ssw31196100 0.0 1017340
12:00+9ssw41084100 0.0 1016390
15:00+9ssw3981100 0.0 1016388
18:00+8s3989100 0.0 1015246
21:00+8s31090100 0.1 1014354